Pamplona, Spain

2:50 PM CET on December 11, 2017 (GMT +0100)
Pamplona

Weather History for LEPP - April, 2014

Change the Weather History Date:

Thursday, April 10, 2014

  Actual Average Record
Temperature  
Mean Temperature 60 °F -  
Max Temperature 77 °F 62 °F 78 °F (2017)
Min Temperature 43 °F 44 °F 35 °F (2004)
Degree Days  
Heating Degree Days 5    
Growing Degree Days 10 (Base 50)    
Moisture  
Dew Point 51 °F    
Average Humidity 65    
Maximum Humidity 100    
Minimum Humidity 25    
Precipitation  
Precipitation 0.00 in - - ()
Sea Level Pressure  
Sea Level Pressure 30.07 in    
Wind  
Wind Speed 1 mph ()    
Max Wind Speed 15 mph    
Max Gust Speed -    
Visibility 7.6 miles    
Events      
Averages and records for this station are not official NWS values.
T = Trace of Precipitation, MM = Missing Value Source: Averaged Metar Reports

Daily Weather History Graph

Daily Weather History Graph

Search for Another Location

Airport or City:

Trip Planner

Search our weather history database for the weather conditions in past years. The results will help you decide how hot, cold, wet, or windy it might be!

Date:

Astronomy

Apr. 10, 2014 Rise Set
Actual Time 7:33 AM CEST 8:42 PM CEST
Civil Twilight 7:04 AM CEST 9:11 PM CEST
Nautical Twilight 6:29 AM CEST 9:46 PM CEST
Astronomical Twilight 5:53 AM CEST 10:23 PM CEST
Moon 4:06 PM CEST (4/10) 4:54 AM CEST (4/10)
Length of Visible Light 14h 07m
Length of Day
13h 09m
Waxing Gibbous, 77% of the Moon is Illuminated
Apr 10
Waxing Gibbous
Apr 15
Full
Apr 22
Last Quarter
Apr 29
New
May 7
First Quarter

Hourly Weather History & Observations

Time (CEST) Temp. Dew Point Humidity Pressure Visibility Wind Dir Wind Speed Gust Speed Precip Events Conditions
12:00 AM 55.4 °F 50.0 °F 82% 30.15 in - Calm Calm - N/A   Clear
6:00 AM 46.4 °F 44.6 °F 93% 30.09 in - Calm Calm - N/A   Clear
6:30 AM 46.4 °F 46.4 °F 100% 30.09 in - Calm Calm - N/A   Clear
7:00 AM 44.6 °F 44.6 °F 100% 30.09 in - Variable 1.2 mph - N/A   Clear
7:30 AM 46.4 °F 46.4 °F 100% 30.09 in - Variable 1.2 mph - N/A   Clear
8:00 AM 45 °F 42 °F 87% 30.16 in 8 mi Calm Calm - -   Scattered Clouds
8:00 AM 46.4 °F 44.6 °F 93% 30.12 in 6.2 mi Calm Calm - N/A   Partly Cloudy
8:30 AM 48.2 °F 48.2 °F 100% 30.12 in 6.2 mi Variable 2.3 mph - N/A   Partly Cloudy
9:00 AM 50.0 °F 48.2 °F 94% 30.12 in - Variable 1.2 mph - N/A   Clear
9:30 AM 53.6 °F 50.0 °F 88% 30.12 in - Calm Calm - N/A   Clear
10:00 AM 57.2 °F 50.0 °F 77% 30.12 in - Calm Calm - N/A   Clear
10:30 AM 59.0 °F 51.8 °F 77% 30.12 in - Calm Calm - N/A   Clear
11:00 AM 60 °F 51 °F 64% 30.12 in 12 mi Calm Calm - -   Clear
11:00 AM 60.8 °F 51.8 °F 72% 30.12 in - Variable 1.2 mph - N/A   Clear
11:30 AM 62.6 °F 51.8 °F 68% 30.12 in - Calm Calm - N/A   Clear
12:00 PM 68.0 °F 53.6 °F 60% 30.12 in - Calm Calm - N/A   Clear
12:30 PM 68.0 °F 53.6 °F 60% 30.12 in - Calm Calm - N/A   Clear
1:00 PM 69.8 °F 55.4 °F 60% 30.09 in - Variable 1.2 mph - N/A   Clear
1:30 PM 73.4 °F 57.2 °F 57% 30.09 in - NE 1.2 mph - N/A   Clear
2:00 PM 73 °F 57 °F 46% 30.02 in 16 mi ENE 2.3 mph - -   Scattered Clouds
2:00 PM 71.6 °F 53.6 °F 53% 30.06 in 6.2 mi ENE 1.2 mph - N/A   Partly Cloudy
2:30 PM 73.4 °F 57.2 °F 57% 30.06 in 6.2 mi NE 1.2 mph - N/A   Partly Cloudy
3:00 PM 75.2 °F 50.0 °F 41% 30.06 in 6.2 mi ENE 1.2 mph - N/A   Partly Cloudy
3:30 PM 77.0 °F 48.2 °F 36% 30.04 in 6.2 mi WNW 1.2 mph - N/A   Partly Cloudy
4:00 PM 77.0 °F 50.0 °F 39% 30.01 in 6.2 mi WNW 1.2 mph - N/A   Partly Cloudy
4:30 PM 77.0 °F 48.2 °F 36% 30.01 in 6.2 mi WNW 1.2 mph - N/A   Partly Cloudy
5:00 PM 76 °F 47 °F 25% 29.94 in 16 mi West 2.3 mph - -   Scattered Clouds
5:00 PM 77.0 °F 48.2 °F 36% 30.01 in 6.2 mi Variable 1.2 mph - N/A   Partly Cloudy
5:30 PM 75.2 °F 51.8 °F 44% 30.01 in 6.2 mi Variable 2.3 mph - N/A   Partly Cloudy
6:00 PM 75.2 °F 53.6 °F 47% 30.01 in 6.2 mi WSW 6.9 mph - N/A   Partly Cloudy
6:30 PM 73.4 °F 55.4 °F 53% 30.04 in 6.2 mi SSW 3.5 mph - N/A   Partly Cloudy
7:00 PM 71.6 °F 53.6 °F 53% 30.04 in 6.2 mi SW 15.0 mph - N/A   Partly Cloudy
7:30 PM 71.6 °F 51.8 °F 50% 30.04 in 6.2 mi SE 4.6 mph - N/A   Partly Cloudy
8:00 PM 69 °F 53 °F 47% 29.98 in 16 mi Calm Calm - -   Scattered Clouds
8:00 PM 69.8 °F 53.6 °F 56% 30.04 in 6.2 mi Variable 1.2 mph - N/A   Partly Cloudy
8:30 PM 68.0 °F 53.6 °F 60% 30.01 in 6.2 mi NNE 3.5 mph - N/A   Partly Cloudy
9:00 PM 66.2 °F 53.6 °F 64% 30.01 in 6.2 mi Variable 2.3 mph - N/A   Partly Cloudy
9:30 PM 64.4 °F 53.6 °F 68% 30.04 in 6.2 mi WNW 3.5 mph - N/A   Partly Cloudy
10:00 PM 62.6 °F 53.6 °F 72% 30.01 in 6.2 mi Variable 1.2 mph - N/A   Partly Cloudy
10:30 PM 60.8 °F 53.6 °F 77% 30.04 in 6.2 mi ESE 1.2 mph - N/A   Partly Cloudy
11:00 PM 62.6 °F 51.8 °F 68% 30.06 in 6.2 mi West 5.8 mph - N/A   Partly Cloudy
11:30 PM 64.4 °F 53.6 °F 68% 30.09 in 6.2 mi WSW 10.4 mph - N/A   Scattered Clouds